Regional Weather Roundup
Issued by NWS Charleston, SC

Current Version | Previous Version | Text Only | Print | Product List | Glossary Off
Versions: 1 2 3 4 5 6 7 8 9 10 11 12 13 14 15 16 17 18 19 20 21 22 23 24 25 26 27 28 29 30 31 32 33 34 35 36 37 38 39 40 41 42 43 44 45 46 47 48 49 50
000 ASUS42 KCHS 272225 RWRCHS REGIONAL WEATHER ROUNDUP NATIONAL WEATHER SERVICE CHARLESTON SC 500 PM EST THU NOV 27 2014 NOTE: "FAIR" INDICATES FEW OR NO CLOUDS BELOW 12,000 FEET WITH NO SIGNIFICANT WEATHER AND/OR OBSTRUCTIONS TO VISIBILITY. NOT ALL STATIONS ARE QUALITY CONTROLLED BY THE NATIONAL WEATHER SERVICE. USE DATA WITH CAUTION...ESPECIALLY DEWPOINT OBSERVATIONS. SCZ027-030-031-034>040-042>050-272300- ...SOUTHEAST SOUTH CAROLINA... CITY SKY/WX TMP DP RH WIND PRES REMARKS N CHARLESTON PTCLDY 52 30 43 NW13 30.17R WATERFRONT PRK NOT AVBL MOUNT PLEASANT FAIR 52 32 46 NW7 30.17R JOHNS ISLAND PTCLDY 52 37 58 W6 30.19R PINOPOLIS N/A 55 36 47 NW15 30.07R MONCKS CORNER FAIR 52 37 58 CALM 30.16R SUMMERVILLE FAIR 50 32 50 W6 30.19R BEAUFORT MCAS CLEAR 53 30 41 NW12G22 30.20R BEAUFORT ARPT FAIR 52 34 50 NW12G21 30.20R HILTON HEAD IS CLEAR 54 32 43 NW9 30.20R WALTERBORO CLEAR 52 28 40 W8 30.20R ALLENDALE FAIR 50 30 46 VRB6G12 30.20R ...SOUTHERN MIDLANDS AND PEE DEE... CITY SKY/WX TMP DP RH WIND PRES REMARKS GEORGETOWN NOT AVBL KINGSTREE NOT AVBL ORANGEBURG CLEAR 52 27 38 NW12 30.18R BARNWELL FAIR 52 32 46 W6 30.21R AIKEN FAIR 48 30 49 W10G17 30.24R MANNING NOT AVBL COLUMBIA PTCLDY 52 29 41 W10 30.17R SUMTER CLEAR 52 27 38 NW7 30.15R FLORENCE PTCLDY 49 36 61 N6 30.15R MYRTLE BEACH PTCLDY 52 34 50 NW10 30.14R N MYRTLE BEACH CLEAR 50 36 58 VRB5 30.13R $$ GAZ063-065-086>088-099>101-113>116-118-119-134>141-150-272300- ...SOUTHEAST GEORGIA... CITY SKY/WX TMP DP RH WIND PRES REMARKS SAVANNAH ARPT PTCLDY 55 28 35 NW9G20 30.21R HUNTER AAF CLEAR 54 30 40 NW15 30.19R FORT STEWART CLEAR 54 29 39 NW12 30.21R STATESBORO NOT AVBL SYLVANIA CLEAR 52 34 50 NW9 30.23R CLAXTON FAIR 52 9 17 NW9 30.23R ...CSRA...CENTRAL AND FAR SOUTHEAST GEORGIA... CITY SKY/WX TMP DP RH WIND PRES REMARKS THOMSON CLEAR 49 34 56 W10G17 30.29R AUGUSTA-BUSH CLEAR 51 27 39 NW13G22 30.22R AUGUSTA-DANIEL CLEAR 52 27 38 W10G21 30.22R SWAINSBORO FAIR 52 34 50 NW14 30.25R VIDALIA CLEAR 52 32 46 NW8G18 30.25R HAZLEHURST FAIR 52 32 45 NW7 30.25R ALMA CLEAR 53 29 39 NW14G22 30.24R WAYCROSS CLEAR 55 35 46 NW8 30.25R JESUP FAIR 54 36 50 NW3 30.24R BAXLEY FAIR 54 32 43 NW10G16 30.24R BRUNSWICK CLEAR 54 30 40 W6 30.24R SAINT SIMONS CLEAR 54 30 40 W10G18 30.22R $$ SCZ027-028-034-036>038-045-046-048>050-GAZ119-141-272300- ...LAKE AND SUPPLEMENTAL COASTAL OBSERVATIONS... STATION/POSITION TIME TEMP WIND PRES WAVE SWELL AIR SEA DIR/SP/G HT/PER HT/PER/DIR (UTC) (F) (DEG/KT/KT) (MB) (FT/S) (FT/S/D) UPR LAKE MARION NOT AVBL WINYAH BAY 2200 52 310/ 7 1020.0S LAKE MURRAY 2100 54 290/ 6/ 16 1020.7R ACE BASIN NERRS 2200 53 310/ 4 1022.0R FORT PULASKI 2200 53 310/ 14/ 17 1023.0R SAPELO ISLAND 2200 55 310/ 12 1023.0R $$ ANZ835-935-AMZ111-154-330-350-352-354-370-450-454-472-272300- ...C-MAN AND BUOY OBSERVATIONS... STATION/POSITION TIME TEMP WIND PRES WAVE SWELL AIR SEA DIR/SP/G HT/PER HT/PER/DIR (UTC) (F) (DEG/KT/KT) (MB) (FT/S) (FT/S/D) FOLLY BEACH CMAN 2200 52 300/ 8/ 12 1022.0R BUOY 41004 2200 56 72 320/ 19/ 27 1020.0R 7/ 7 2/ 9 BUOY 41008 2200 56 63 320/ 21/ 27 1022.2R 4/ 4 CAPERS NEARSHORE 2100 54 340/ 14/ 17 N/A FRIPP NEARSHORE NOT AVBL STATION/POSITION TIME TEMP WIND PRES WAVE SWELL AIR SEA DIR/SP/G HT/PER HT/PER/DIR (UTC) (F) (DEG/KT/KT) (MB) (FT/S) (FT/S/D) 5E ST. MARYS GA 2200 62 N/A 3/ 4 FRYING PAN BUOY 2200 55 71 300/ 23/ 29 1019.0R 7/ 7 2/320/13 BUOY 41025 2200 55 330/ 19/ 23 1014.7R 5/10 3/ 90/10 CAPE LOOKOUT NC 2200 50 330/ 18/ 24 1017.4R BUOY 41002 2108 66 73 280/ 27/ 35 1015.6 10/ 7 2/350/14 BUOY 41010 2200 67 78 310/ 21/ 27 1020.2R 7/ 7 2/150/15 ST AUGUSTINE FL 2200 58 320/ 9/ 11 1023.3R $$

USA.gov is the U.S. government's official web portal to all federal, state and local government web resources and services.